THOR ABLESTAR DEB, 3810

Orbit data source: Space-Track

THOR ABLESTAR DEB, 3810 is space debris in LEO originally from a launch on Fri, 13 Aug 1965 UTC launched from the Air Force Western Test Range (AFWTR). Debris objects in space refer to the collection of defunct objects orbiting the Earth. Examples of debris include non-operational satellites, rocket bodies, and fragments generated from explosions, collisions, or faulty payload assembly.

Loading next visibility...
Identifier
3810, 1965-065P
Orbit
LEO
Country
Flag of USUS
Related business
Manufacturer
Unknown
Mission
Spacecraft
Bus & Motor
Unknown
Mass
Unknown
Launch date (UTC)
1965-08-13 (61 years ago)
Launch vehicle
Unknown
Launch site
Air Force Western Test Range (AFWTR)
Object type
Payload
Rocket body
Debris
Shape & HBR
Unknown shape, 0.1 m
Radar Cross Section
Medium (>0.1 m² and <1 m²)

Expand to show TLE details & history
Last TLE update: 2 days ago

TLE from 2 days ago
0 THOR ABLESTAR DEB
1 03810U 65065P   26206.26282691  .00000484  00000-0  71270-3 0  9992
2 03810  89.9970 216.0465 0061027 174.8809 305.0141 13.52232831264021
Epoch: 2026-07-25T06:18Z
TLE epoch observation values (Epoch: 2026-07-25T06:18:28.245Z)
Latitude
60.7696°
Longitude
-1.55415°
Altitude
1,048.627 km
Speed
7.346 km/s
True Right ascension
02h 24m 09s
True Declination
60° 37' 43"
Sunlit
Object was in daylight at epoch
Visualization orbit readout
Latitude
Unknown
Longitude
Unknown
Altitude
Unknown
Speed
Unknown
Apparent Right ascension
Unknown
Apparent Declination
Unknown
Sunlit
N/A
Visualization observer readout
Local Sidereal Time
21:52:15
Azimuth
Unknown
Elevation
Unknown
Doppler factor
Unknown
Orbital elements
Apogee altitude
1,106.501 km
Perigee altitude
1,015.702 km
Semi-major axis
7,439.238 km
Eccentricity
0.0061
Inclination
89.997°
RAAN
216.0465°
Arg. of periapsis
174.8809°
True anomaly
304.43884°
Mean anomaly
305.0141°
Eccentric anomaly
304.72672°
Mean motion
3.3826 °/min
Orbital period
106.43 mins
BSTAR
0.0007127
Loading maneuver chart data...
Computing Atmospheric mass density...
Loading historical data...
Loading historical data...
Loading historical data...
Loading historical data...
Loading historical data...
Loading historical data...
Loading historical data...

Documentation

Showing up to 5 results
|